Time,TemperatureF,DewpointF,PressureIn,WindDirection,WindDirectionDegrees,WindSpeedMPH,WindSpeedGustMPH,Humidity,HourlyPrecipIn,Conditions,Clouds,dailyrainin,SoftwareType,DateUTC
2013-06-07 00:10:00,60.6,54.1,29.90,NNW,344,0.0,0.0,79,0.00,,---,0.00,VWS V14.01,2013-06-07 05:10:00,
2013-06-07 00:25:00,60.0,53.8,29.90,NNW,344,0.0,0.0,80,0.00,,---,0.00,VWS V14.01,2013-06-07 05:25:00,
2013-06-07 00:40:00,59.8,54.0,29.90,NNW,344,0.0,0.0,81,0.00,,---,0.00,VWS V14.01,2013-06-07 05:40:00,
2013-06-07 00:55:00,59.5,53.7,29.90,NNW,344,0.0,0.0,81,0.00,,---,0.00,VWS V14.01,2013-06-07 05:55:00,
2013-06-07 01:10:00,58.8,53.7,29.90,NNW,344,0.0,2.0,83,0.00,,---,0.00,VWS V14.01,2013-06-07 06:10:00,
2013-06-07 01:25:00,58.3,53.8,29.90,NNW,344,0.0,0.0,85,0.00,,---,0.00,VWS V14.01,2013-06-07 06:25:00,
2013-06-07 01:40:00,58.2,54.0,29.90,NNW,344,0.0,0.0,86,0.00,,---,0.00,VWS V14.01,2013-06-07 06:40:00,
2013-06-07 01:55:00,58.0,53.8,29.90,NNW,344,0.0,0.0,86,0.00,,---,0.00,VWS V14.01,2013-06-07 06:55:00,
2013-06-07 02:10:00,57.3,53.5,29.90,NNW,344,0.0,0.0,87,0.00,,---,0.00,VWS V14.01,2013-06-07 07:10:00,
2013-06-07 02:25:00,57.3,53.8,29.90,NNW,344,0.0,3.0,88,0.00,,---,0.00,VWS V14.01,2013-06-07 07:25:00,
2013-06-07 02:40:00,57.2,53.4,29.90,NNW,344,0.0,2.0,87,0.00,,---,0.00,VWS V14.01,2013-06-07 07:40:00,
2013-06-07 02:55:00,56.8,53.6,29.90,NNW,344,0.0,0.0,89,0.00,,---,0.00,VWS V14.01,2013-06-07 07:55:00,
2013-06-07 03:10:00,56.8,54.5,29.90,NNW,344,4.0,4.0,92,0.00,,---,0.00,VWS V14.01,2013-06-07 08:10:00,
2013-06-07 03:25:00,57.2,54.0,29.90,NNW,344,4.0,5.0,89,0.00,,---,0.00,VWS V14.01,2013-06-07 08:25:00,
2013-06-07 03:40:00,57.2,54.0,29.90,NNW,344,3.0,5.0,89,0.00,,---,0.00,VWS V14.01,2013-06-07 08:40:00,
2013-06-07 03:55:00,56.8,54.5,29.90,NNW,344,3.0,5.0,92,0.00,,---,0.00,VWS V14.01,2013-06-07 08:55:00,
2013-06-07 04:10:00,56.4,53.8,29.91,NNW,344,3.0,5.0,91,0.00,,---,0.00,VWS V14.01,2013-06-07 09:10:00,
2013-06-07 04:25:00,56.1,53.5,29.91,NNW,344,3.0,5.0,91,0.00,,---,0.00,VWS V14.01,2013-06-07 09:25:00,
2013-06-07 04:40:00,55.9,53.3,29.91,NNW,344,0.0,4.0,91,0.00,,---,0.00,VWS V14.01,2013-06-07 09:40:00,
2013-06-07 04:55:00,55.4,52.8,29.91,NNW,344,0.0,0.0,91,0.00,,---,0.00,VWS V14.01,2013-06-07 09:55:00,
2013-06-07 05:10:00,54.6,52.3,29.91,NNW,344,0.0,0.0,92,0.00,,---,0.00,VWS V14.01,2013-06-07 10:10:00,
2013-06-07 05:25:00,54.2,52.2,29.92,NNW,344,0.0,0.0,93,0.00,,---,0.00,VWS V14.01,2013-06-07 10:25:00,
2013-06-07 05:40:00,54.4,52.7,29.92,ENE,63,1.0,3.0,94,0.00,,---,0.00,VWS V14.01,2013-06-07 10:40:00,
2013-06-07 05:55:00,54.4,52.4,29.92,North,5,0.0,3.0,93,0.00,,---,0.00,VWS V14.01,2013-06-07 10:55:00,
2013-06-07 06:10:00,54.4,52.7,29.93,North,360,0.0,4.0,94,0.00,,---,0.00,VWS V14.01,2013-06-07 11:10:00,
2013-06-07 06:25:00,54.4,52.7,29.93,North,360,2.0,3.0,94,0.00,,---,0.00,VWS V14.01,2013-06-07 11:25:00,
2013-06-07 06:40:00,54.8,53.1,29.93,North,5,0.0,3.0,94,0.00,,---,0.00,VWS V14.01,2013-06-07 11:40:00,
2013-06-07 06:55:00,55.3,53.6,29.93,West,273,0.0,4.0,94,0.00,,---,0.00,VWS V14.01,2013-06-07 11:55:00,
2013-06-07 07:10:00,56.5,55.1,29.93,SW,229,2.0,5.0,95,0.00,,---,0.00,VWS V14.01,2013-06-07 12:10:00,
2013-06-07 07:25:00,57.6,55.3,29.93,North,360,5.0,7.0,92,0.00,,---,0.00,VWS V14.01,2013-06-07 12:25:00,
2013-06-07 07:40:00,58.3,55.4,29.94,NNW,347,4.0,8.0,90,0.00,,---,0.00,VWS V14.01,2013-06-07 12:40:00,
2013-06-07 07:55:00,59.1,55.9,29.94,North,350,5.0,7.0,89,0.00,,---,0.00,VWS V14.01,2013-06-07 12:55:00,
2013-06-07 08:10:00,59.9,56.0,29.94,NNW,338,6.0,7.0,87,0.00,,---,0.00,VWS V14.01,2013-06-07 13:10:00,
2013-06-07 08:25:00,60.5,56.0,29.94,North,360,3.0,9.0,85,0.00,,---,0.00,VWS V14.01,2013-06-07 13:25:00,
2013-06-07 08:40:00,60.8,55.6,29.95,NNE,31,1.0,8.0,83,0.00,,---,0.00,VWS V14.01,2013-06-07 13:40:00,
2013-06-07 08:55:00,60.7,54.8,29.95,North,355,3.0,7.0,81,0.00,,---,0.00,VWS V14.01,2013-06-07 13:55:00,
2013-06-07 09:10:00,61.4,55.9,29.95,North,360,0.0,5.0,82,0.00,,---,0.00,VWS V14.01,2013-06-07 14:10:00,
2013-06-07 09:25:00,63.0,56.4,29.96,North,360,4.0,6.0,79,0.00,,---,0.00,VWS V14.01,2013-06-07 14:25:00,
2013-06-07 09:40:00,64.3,57.0,29.95,NNW,347,5.0,6.0,77,0.00,,---,0.00,VWS V14.01,2013-06-07 14:40:00,
2013-06-07 09:55:00,65.3,57.2,29.95,NW,305,5.0,8.0,75,0.00,,---,0.00,VWS V14.01,2013-06-07 14:55:00,
2013-06-07 10:10:00,66.0,57.9,29.95,WNW,300,10.0,10.0,75,0.00,,---,0.00,VWS V14.01,2013-06-07 15:10:00,
2013-06-07 10:25:00,66.5,57.2,29.94,NW,315,2.0,11.0,72,0.00,,---,0.00,VWS V14.01,2013-06-07 15:25:00,
2013-06-07 10:40:00,67.2,56.7,29.94,NW,325,6.0,10.0,69,0.00,,---,0.00,VWS V14.01,2013-06-07 15:40:00,
2013-06-07 10:55:00,67.9,56.5,29.94,NW,321,5.0,10.0,67,0.00,,---,0.00,VWS V14.01,2013-06-07 15:55:00,
2013-06-07 11:10:00,67.0,55.7,29.95,NNW,335,6.0,12.0,67,0.00,,---,0.00,VWS V14.01,2013-06-07 16:10:00,
2013-06-07 11:25:00,67.9,56.5,29.95,North,351,5.0,9.0,67,0.00,,---,0.00,VWS V14.01,2013-06-07 16:25:00,
2013-06-07 11:40:00,68.6,55.1,29.94,North,9,10.0,16.0,62,0.00,,---,0.00,VWS V14.01,2013-06-07 16:40:00,
2013-06-07 11:55:00,68.3,55.2,29.94,NNW,337,9.0,15.0,63,0.00,,---,0.00,VWS V14.01,2013-06-07 16:55:00,
2013-06-07 12:10:00,66.9,55.6,29.94,NW,311,5.0,11.0,67,0.00,,---,0.00,VWS V14.01,2013-06-07 17:10:00,
2013-06-07 12:25:00,67.4,55.2,29.94,WNW,303,2.0,8.0,65,0.00,,---,0.00,VWS V14.01,2013-06-07 17:25:00,
2013-06-07 12:40:00,68.1,54.6,29.94,NNW,348,9.0,15.0,62,0.00,,---,0.00,VWS V14.01,2013-06-07 17:40:00,
2013-06-07 12:55:00,68.4,54.4,29.93,NNW,337,6.0,17.0,61,0.00,,---,0.00,VWS V14.01,2013-06-07 17:55:00,
2013-06-07 13:10:00,68.1,55.0,29.92,NW,306,1.0,15.0,63,0.00,,---,0.00,VWS V14.01,2013-06-07 18:10:00,
2013-06-07 13:25:00,69.3,56.6,29.92,North,355,7.0,18.0,64,0.00,,---,0.00,VWS V14.01,2013-06-07 18:25:00,
2013-06-07 13:40:00,70.4,54.9,29.92,NNW,328,8.0,14.0,58,0.00,,---,0.00,VWS V14.01,2013-06-07 18:40:00,
2013-06-07 13:55:00,69.8,54.4,29.91,North,355,7.0,14.0,58,0.00,,---,0.00,VWS V14.01,2013-06-07 18:55:00,
2013-06-07 14:10:00,69.6,54.7,29.91,North,355,9.0,15.0,59,0.00,,---,0.00,VWS V14.01,2013-06-07 19:10:00,
2013-06-07 14:25:00,69.9,53.0,29.91,NNW,340,5.0,16.0,55,0.00,,---,0.00,VWS V14.01,2013-06-07 19:25:00,
2013-06-07 14:40:00,70.6,57.4,29.90,NNE,25,4.0,14.0,63,0.00,,---,0.00,VWS V14.01,2013-06-07 19:40:00,
2013-06-07 14:55:00,70.7,53.8,29.90,NNW,333,8.0,15.0,55,0.00,,---,0.00,VWS V14.01,2013-06-07 19:55:00,
2013-06-07 15:10:00,70.4,52.5,29.90,North,355,12.0,15.0,53,0.00,,---,0.00,VWS V14.01,2013-06-07 20:10:00,
2013-06-07 15:25:00,70.6,55.1,29.90,North,355,7.0,15.0,58,0.00,,---,0.00,VWS V14.01,2013-06-07 20:25:00,
2013-06-07 15:40:00,71.0,54.0,29.89,North,5,7.0,12.0,55,0.00,,---,0.00,VWS V14.01,2013-06-07 20:40:00,
2013-06-07 16:10:00,71.2,55.7,29.89,NNW,339,7.0,13.0,58,0.00,,---,0.00,VWS V14.01,2013-06-07 21:10:00,
2013-06-07 16:25:00,71.5,55.5,29.88,NNE,24,6.0,13.0,57,0.00,,---,0.00,VWS V14.01,2013-06-07 21:25:00,
2013-06-07 16:40:00,71.5,54.5,29.88,North,355,4.0,13.0,55,0.00,,---,0.00,VWS V14.01,2013-06-07 21:40:00,
2013-06-07 16:55:00,72.2,55.2,29.88,North,360,10.0,12.0,55,0.00,,---,0.00,VWS V14.01,2013-06-07 21:55:00,
2013-06-07 17:10:00,72.5,55.4,29.88,NNW,346,6.0,10.0,55,0.00,,---,0.00,VWS V14.01,2013-06-07 22:10:00,
2013-06-07 17:25:00,71.6,55.1,29.88,North,5,6.0,11.0,56,0.00,,---,0.00,VWS V14.01,2013-06-07 22:25:00,
2013-06-07 17:40:00,70.7,53.8,29.88,NNW,331,4.0,9.0,55,0.00,,---,0.00,VWS V14.01,2013-06-07 22:40:00,
2013-06-07 18:10:00,70.1,53.7,29.87,NE,34,6.0,10.0,56,0.00,,---,0.00,VWS V14.01,2013-06-07 23:10:00,
2013-06-07 18:25:00,70.8,53.8,29.87,North,5,5.0,8.0,55,0.00,,---,0.00,VWS V14.01,2013-06-07 23:25:00,
2013-06-07 18:40:00,70.9,52.9,29.86,North,5,4.0,8.0,53,0.00,,---,0.00,VWS V14.01,2013-06-07 23:40:00,
2013-06-07 18:55:00,71.0,53.5,29.86,North,355,3.0,7.0,54,0.00,,---,0.00,VWS V14.01,2013-06-07 23:55:00,
2013-06-07 19:10:00,70.6,53.7,29.86,NNE,31,6.0,8.0,55,0.00,,---,0.00,VWS V14.01,2013-06-08 00:10:00,
2013-06-07 19:25:00,69.7,54.3,29.86,NE,46,5.0,8.0,58,0.00,,---,0.00,VWS V14.01,2013-06-08 00:25:00,
2013-06-07 19:40:00,69.1,54.2,29.86,NE,42,2.0,7.0,59,0.00,,---,0.00,VWS V14.01,2013-06-08 00:40:00,
2013-06-07 19:55:00,68.3,54.3,29.86,NE,38,2.0,6.0,61,0.00,,---,0.00,VWS V14.01,2013-06-08 00:55:00,
2013-06-07 20:10:00,67.5,54.5,29.85,NE,38,0.0,5.0,63,0.00,,---,0.00,VWS V14.01,2013-06-08 01:10:00,
2013-06-07 20:25:00,66.7,54.6,29.85,NE,38,1.0,2.0,65,0.00,,---,0.00,VWS V14.01,2013-06-08 01:25:00,
2013-06-07 20:40:00,65.7,54.5,29.86,NE,38,0.0,3.0,67,0.00,,---,0.00,VWS V14.01,2013-06-08 01:40:00,
2013-06-07 20:55:00,65.1,53.5,29.86,NE,38,0.0,0.0,66,0.00,,---,0.00,VWS V14.01,2013-06-08 01:55:00,
2013-06-07 21:10:00,64.3,53.5,29.87,NE,38,0.0,0.0,68,0.00,,---,0.00,VWS V14.01,2013-06-08 02:10:00,
2013-06-07 21:40:00,62.3,53.9,29.87,NE,38,0.0,1.0,74,0.00,,---,0.00,VWS V14.01,2013-06-08 02:40:00,
2013-06-07 21:55:00,61.4,53.8,29.87,NE,38,0.0,1.0,76,0.00,,---,0.00,VWS V14.01,2013-06-08 02:55:00,
2013-06-07 22:10:00,60.8,54.3,29.87,NE,38,0.0,1.0,79,0.00,,---,0.00,VWS V14.01,2013-06-08 03:10:00,
2013-06-07 22:40:00,59.7,54.2,29.88,NE,38,0.0,0.0,82,0.00,,---,0.00,VWS V14.01,2013-06-08 03:40:00,
2013-06-07 22:55:00,59.3,54.5,29.88,NE,38,0.0,0.0,84,0.00,,---,0.00,VWS V14.01,2013-06-08 03:55:00,
2013-06-07 23:10:00,59.1,54.3,29.89,NE,38,0.0,0.0,84,0.00,,---,0.00,VWS V14.01,2013-06-08 04:10:00,
2013-06-07 23:25:00,58.7,54.2,29.89,NE,38,0.0,0.0,85,0.00,,---,0.00,VWS V14.01,2013-06-08 04:25:00,
2013-06-07 23:40:00,58.4,53.9,29.89,NE,38,0.0,0.0,85,0.00,,---,0.00,VWS V14.01,2013-06-08 04:40:00,
2013-06-07 23:55:00,57.8,53.3,29.89,NE,38,0.0,0.0,85,0.00,,---,0.00,VWS V14.01,2013-06-08 04:55:00,